HST 1 20580U 90037B 25292.30361102 .00014189 00000+0 51141-3 0 9997 2 20580 28.4688 282.7221 0001978 356.3744 3.6837 15.27008075751661 POLAR 1 23802U 96013A 25276.55606112 .00000203 00000+0 00000+0 0 9995 2 23802 79.5676 229.9074 6219033 217.7574 75.9205 1.29846605141529 SWAS 1 25560U 98071A 25292.25755204 .00006068 00000+0 40793-3 0 9998 2 25560 69.8946 127.8351 0008916 267.9235 92.0907 15.07239003460936 CXO 1 25867U 99040B 25293.72802329 .00000720 00000+0 00000+0 0 9991 2 25867 52.0284 124.4771 8226367 310.6443 0.1841 0.37811257 16412 XMM-NEWTON 1 25989U 99066A 25291.02454635 -.00000004 00000+0 00000+0 0 9994 2 25989 65.6902 286.1731 4769672 69.1959 0.1428 0.50134774 21796 TERRA 1 25994U 99068A 25292.28853895 .00000970 00000+0 20750-3 0 9991 2 25994 97.9832 345.9469 0000904 269.5006 179.8749 14.60859304374436 CLUSTER II-FM7 (SAMBA) 1 26410U 00041A 25294.33283203 .00000908 00000+0 00000+0 0 9999 2 26410 146.6293 20.2040 8655111 235.7314 0.8288 0.44798370 19239 CLUSTER II-FM5 (RUMBA) 1 26463U 00045A 25279.65635572 .00010692 -63660-5 00000+0 0 9998 2 26463 146.6979 96.1587 9117658 315.8839 1.9747 0.42958277 19041 CLUSTER II-FM8 (TANGO) 1 26464U 00045B 25294.74822711 .00001016 00000+0 00000+0 0 9991 2 26464 146.9305 20.7754 8662403 236.1720 0.7476 0.44420416 19231 ODIN 1 26702U 01007A 25292.31959628 .00050866 00000+0 10010-2 0 9996 2 26702 97.4320 318.6752 0002802 2.2127 357.9135 15.47091401351905 TIMED 1 26998U 01055B 25292.29013413 .00003288 00000+0 30853-3 0 9990 2 26998 74.0715 359.7774 0002433 269.4663 90.6243 14.94422119294826 CORIOLIS 1 27640U 03001A 25292.26990523 .00000289 00000+0 15672-3 0 9991 2 27640 98.7161 297.8486 0013922 182.4962 177.6148 14.19842539180038 SORCE 1 27651U 03004A 25292.04864776 .00007192 00000+0 55400-3 0 9995 2 27651 39.9907 195.5878 0015243 118.5449 241.6881 15.01632253235615 MOST 1 27843U 03031D 25292.30820753 .00000196 00000+0 11019-3 0 9999 2 27843 98.7088 298.3961 0009075 223.4833 136.5630 14.21247797156493 SCISAT 1 1 27858U 03036A 25292.31515725 .00001550 00000+0 20481-3 0 9999 2 27858 73.9285 289.7769 0006426 38.6895 321.4740 14.80965410195780 SWIFT 1 28485U 04047A 25292.02236930 .00058630 00000+0 11616-2 0 9995 2 28485 20.5540 213.8180 0005257 248.3012 111.6870 15.45331815149225 HINODE (SOLAR-B) 1 29479U 06041A 25292.30598843 .00001427 00000+0 25604-3 0 9995 2 29479 98.0695 306.9232 0016989 336.5281 23.5147 14.68166598 19529 SHIJIAN-6 02A (SJ-6 02A) 1 29505U 06046A 25292.25632084 .00014888 00000+0 84115-3 0 9997 2 29505 97.6703 326.6665 0001915 233.3555 126.7500 15.13206259 35789 SHIJIAN-6 02B (SJ-6 02B) 1 29506U 06046B 25292.26824105 .00002803 00000+0 22828-3 0 9993 2 29506 97.6922 318.4823 0012998 139.6139 220.6052 15.00268550 34601 FGRST (GLAST) 1 33053U 08029A 25292.06999318 .00005845 00000+0 23415-3 0 9997 2 33053 25.5820 76.5265 0008657 9.3230 350.7468 15.22045548959037 SDO 1 36395U 10005A 25291.46217688 -.00000045 00000+0 00000+0 0 9991 2 36395 34.1430 90.0283 0001530 121.0253 240.9510 1.00273177 57649 CRYOSAT 2 1 36508U 10013A 25292.27508078 .00000470 00000+0 11591-3 0 9994 2 36508 92.0239 218.9880 0002651 83.9086 276.2423 14.51904312823125 X-SAT 1 37389U 11015C 25292.27237448 .00000339 00000+0 16211-3 0 9993 2 37389 98.3261 276.1724 0013567 335.2414 24.8114 14.25096107753363 GCOM-W1 (SHIZUKU) 1 38337U 12025A 25292.28846524 .00001446 00000+0 33131-3 0 9991 2 38337 98.2123 231.2305 0001639 90.3582 30.9567 14.57073620713953 NUSTAR 1 38358U 12031A 25292.33336806 .00016549 00000+0 10606-2 0 9995 2 38358 6.0269 36.6167 0007758 135.1185 192.7715 15.05428731 1304 NEOSSAT 1 39089U 13009D 25292.22373457 .00000450 00000+0 17072-3 0 9993 2 39089 98.4096 113.0991 0009990 242.2893 117.7280 14.35686619662164 BRITE-AUSTRIA 1 39091U 13009F 25292.27148954 .00000469 00000+0 17459-3 0 9992 2 39091 98.3908 112.7935 0009231 236.2451 123.7857 14.36388467662464 IRIS 1 39197U 13033A 25292.29384836 .00003304 00000+0 39175-3 0 9999 2 39197 97.9443 127.2369 0025536 29.3180 330.9461 14.84985315664618 HISAKI (SPRINT-A) 1 39253U 13049A 25291.92614797 .00000187 00000+0 16136-3 0 9998 2 39253 29.7224 6.5655 0136568 221.0048 138.0186 13.55509289598661 CASSIOPE 1 39265U 13055A 25292.25288649 .00063402 -11728-6 90265-3 0 9999 2 39265 80.9427 355.3354 0360193 144.3436 218.2442 15.06333859631154 STSAT-3 1 39422U 13066G 25292.26354661 .00008258 00000+0 65406-3 0 9995 2 39422 97.5811 261.8773 0015137 121.7766 238.4935 15.00739021648048 SWARM B 1 39451U 13067A 25292.32630375 .00009036 00000+0 34658-3 0 9994 2 39451 87.7439 55.3293 0002121 97.1366 263.0123 15.26359399646473 SWARM A 1 39452U 13067B 25292.30603729 .00018127 00000+0 38463-3 0 9995 2 39452 87.3385 145.2841 0002906 85.1300 275.0290 15.44923117668987 SWARM C 1 39453U 13067C 25292.30597731 .00018147 00000+0 38505-3 0 9990 2 39453 87.3380 143.8717 0002903 85.2596 274.8993 15.44923112668942 BRITE-CA1 (TORONTO) 1 40020U 14033L 25292.33043754 .00001937 00000+0 30225-3 0 9990 2 40020 97.9444 61.2865 0078886 328.8004 30.8533 14.71975424606777 OCO 2 1 40059U 14035A 25292.26190662 .00001226 00000+0 28245-3 0 9997 2 40059 98.2122 231.9498 0001829 81.4230 278.7176 14.57055713600965 BRITE-PL2 (HEWELIUSZ) 1 40119U 14049B 25292.26279651 .00005426 00000+0 52319-3 0 9990 2 40119 97.8981 37.8782 0014280 183.2799 176.8329 14.93252909605470 MMS 1 1 40482U 15011A 25292.33336806 -.00000728 00000+0 00000+0 0 9994 2 40482 68.0698 352.5283 8568331 162.2247 211.3175 0.28356933 1384 MMS 2 1 40483U 15011B 25292.33336806 -.00000728 00000+0 00000+0 0 9995 2 40483 68.0722 352.5259 8570756 162.2207 211.3353 0.28356568 1388 MMS 3 1 40484U 15011C 25292.33336806 -.00000729 00000+0 00000+0 0 9997 2 40484 68.0774 352.5358 8569823 162.2311 211.3092 0.28357061 1384 MMS 4 1 40485U 15011D 25292.33336806 -.00000729 00000+0 00000+0 0 9998 2 40485 68.0639 352.5229 8569864 162.2391 211.2702 0.28356729 1382 ASTROSAT 1 40930U 15052A 25289.78029365 .00002626 00000+0 24219-3 0 9991 2 40930 5.9967 106.5658 0007823 165.7652 194.2697 14.81785753543657 DAMPE 1 41173U 15078A 25292.29096567 .00002899 00000+0 10267-3 0 9997 2 41173 97.4545 291.7671 0011391 203.1359 156.9370 15.29900283547706 PISAT 1 41784U 16059B 25292.23901528 .00002556 00000+0 44861-3 0 9998 2 41784 97.8175 298.2185 0027859 254.4793 105.3337 14.68294662484379 HXMT (HUIYAN) 1 42758U 17034A 25292.29625552 .00010819 00000+0 56801-3 0 9998 2 42758 43.0136 81.5467 0031967 60.5854 299.8178 15.15342942461078 FLYING LAPTOP 1 42831U 17042G 25292.35534731 .00005309 00000+0 43731-3 0 9990 2 42831 97.4209 93.5172 0009996 223.7373 136.3060 14.99436997450344 ZHANGHENG 1-01 (CSES-1) 1 43194U 18015C 25292.32760547 .00021690 00000+0 98566-3 0 9994 2 43194 97.6630 88.5622 0017029 42.7085 317.5470 15.20646923428032 SALSAT 1 46495U 20068K 25292.22504609 .00018450 00000+0 74045-3 0 9992 2 46495 97.8745 276.6245 0012966 69.3885 290.8741 15.24963280278575 IXPE 1 49954U 21121A 25292.33336806 .00010061 00000+0 59310-3 0 9998 2 49954 0.2304 335.0298 0007757 44.2510 213.3912 15.07047343 5284